Weather reports worldwide

Advertisment
Capo Frasca, Italy (16539): temperature & dewpoint: 13.11.2019 19:00:00 - 19.11.2019 19:00:00 (CET)Capo Frasca, Italy (16539): wind speed: 13.11.2019 19:00:00 - 19.11.2019 19:00:00 (CET)Capo Frasca, Italy (16539): wind direction: 13.11.2019 19:00:00 - 19.11.2019 19:00:00 (CET)Capo Frasca, Italy (16539): reduced air pressure: 13.11.2019 19:00:00 - 19.11.2019 19:00:00 (CET)Capo Frasca, Italy (16539): visibility: 13.11.2019 19:00:00 - 19.11.2019 19:00:00 (CET)
Date & Time tt [°C] td [°C] ff [km/h] ff [kn] dd ppp [hPa] vv [km]
19.11.2019 19:00:00 11,8 9,7 16 9 NW 1014,0 10
19.11.2019 18:00:00 - - - - - - -
19.11.2019 17:00:00 - - - - - - -
19.11.2019 16:00:00 12,4 9,2 18 10 NW 1013,5 15
19.11.2019 15:00:00 - - - - - - -
19.11.2019 14:00:00 - - - - - - -
19.11.2019 13:00:00 13,0 9,8 16 9 NW 1012,9 15
19.11.2019 12:00:00 - - - - - - -
19.11.2019 11:00:00 - - - - - - -
19.11.2019 10:00:00 11,8 10,2 13 7 NW 1012,2 15
19.11.2019 09:00:00 - - - - - - -
19.11.2019 08:00:00 - - - - - - -
19.11.2019 07:00:00 12,0 10,4 11 6 NNW 1009,4 10
19.11.2019 06:00:00 - - - - - - -
19.11.2019 05:00:00 - - - - - - -
19.11.2019 04:00:00 - - - - - - -
19.11.2019 03:00:00 - - - - - - -
19.11.2019 02:00:00 - - - - - - -
19.11.2019 01:00:00 - - - - - - -
19.11.2019 00:00:00 - - - - - - -
18.11.2019 23:00:00 - - - - - - -
18.11.2019 22:00:00 - - - - - - -
18.11.2019 21:00:00 - - - - - - -
18.11.2019 20:00:00 - - - - - - -
18.11.2019 19:00:00 13,4 12,8 16 9 SE 1006,8 20
18.11.2019 18:00:00 - - - - - - -
18.11.2019 17:00:00 - - - - - - -
18.11.2019 16:00:00 15,8 9,7 21 11 SSE 1007,2 25
18.11.2019 15:00:00 - - - - - - -
18.11.2019 14:00:00 - - - - - - -
18.11.2019 13:00:00 17,0 11,1 13 7 SSE 1008,2 25
18.11.2019 12:00:00 - - - - - - -
18.11.2019 11:00:00 - - - - - - -
18.11.2019 10:00:00 12,0 10,9 11 6 SE 1011,2 20
18.11.2019 09:00:00 - - - - - - -
18.11.2019 08:00:00 - - - - - - -
18.11.2019 07:00:00 8,2 7,0 9 5 ESE 1011,4 20
18.11.2019 06:00:00 - - - - - - -
18.11.2019 05:00:00 - - - - - - -
18.11.2019 04:00:00 - - - - - - -
18.11.2019 03:00:00 - - - - - - -
18.11.2019 02:00:00 - - - - - - -
18.11.2019 01:00:00 - - - - - - -
18.11.2019 00:00:00 - - - - - - -
17.11.2019 23:00:00 - - - - - - -
17.11.2019 22:00:00 - - - - - - -
17.11.2019 21:00:00 - - - - - - -
17.11.2019 20:00:00 - - - - - - -
17.11.2019 19:00:00 10,8 10,0 21 11 WNW 1011,5 15
17.11.2019 18:00:00 - - - - - - -
17.11.2019 17:00:00 - - - - - - -
17.11.2019 16:00:00 12,6 11,3 11 6 WNW 1010,3 20
17.11.2019 15:00:00 - - - - - - -
17.11.2019 14:00:00 - - - - - - -
17.11.2019 13:00:00 13,8 11,1 22 12 WNW 1009,3 20
17.11.2019 12:00:00 - - - - - - -
17.11.2019 11:00:00 - - - - - - -
17.11.2019 10:00:00 13,0 9,1 26 14 WNW 1008,0 20
17.11.2019 09:00:00 - - - - - - -
17.11.2019 08:00:00 - - - - - - -
17.11.2019 07:00:00 10,8 9,1 31 17 NW 1004,9 12
17.11.2019 06:00:00 - - - - - - -
17.11.2019 05:00:00 - - - - - - -
17.11.2019 04:00:00 - - - - - - -
17.11.2019 03:00:00 - - - - - - -
17.11.2019 02:00:00 - - - - - - -
17.11.2019 01:00:00 - - - - - - -
17.11.2019 00:00:00 - - - - - - -
16.11.2019 23:00:00 - - - - - - -
16.11.2019 22:00:00 - - - - - - -
16.11.2019 21:00:00 - - - - - - -
16.11.2019 20:00:00 - - - - - - -
16.11.2019 19:00:00 9,6 8,0 8 4 N 1003,3 15
16.11.2019 18:00:00 - - - - - - -
16.11.2019 17:00:00 - - - - - - -
16.11.2019 16:00:00 10,0 8,4 4 2 NNW 1006,6 3,0
16.11.2019 15:00:00 - - - - - - -
16.11.2019 14:00:00 - - - - - - -
16.11.2019 13:00:00 10,4 8,7 15 8 ESE 1008,4 20
16.11.2019 12:00:00 - - - - - - -
16.11.2019 11:00:00 - - - - - - -
16.11.2019 10:00:00 9,8 8,6 11 6 ENE 1009,7 20
16.11.2019 09:00:00 - - - - - - -
16.11.2019 08:00:00 - - - - - - -
16.11.2019 07:00:00 9,8 8,4 13 7 ESE 1009,6 20
16.11.2019 06:00:00 - - - - - - -
16.11.2019 05:00:00 - - - - - - -
16.11.2019 04:00:00 - - - - - - -
16.11.2019 03:00:00 - - - - - - -
16.11.2019 02:00:00 - - - - - - -
16.11.2019 01:00:00 - - - - - - -
16.11.2019 00:00:00 - - - - - - -
15.11.2019 23:00:00 - - - - - - -
15.11.2019 22:00:00 - - - - - - -
15.11.2019 21:00:00 - - - - - - -
15.11.2019 20:00:00 - - - - - - -
15.11.2019 19:00:00 10,6 9,2 8 4 SSE 1005,1 10
15.11.2019 18:00:00 - - - - - - -
15.11.2019 17:00:00 - - - - - - -
15.11.2019 16:00:00 13,0 10,9 15 8 SW 1004,0 20
15.11.2019 15:00:00 - - - - - - -
15.11.2019 14:00:00 - - - - - - -
15.11.2019 13:00:00 11,6 10,0 13 7 SW 1003,8 10
15.11.2019 12:00:00 - - - - - - -
15.11.2019 11:00:00 - - - - - - -
15.11.2019 10:00:00 11,4 9,8 18 10 SSW 1003,9 2,0
15.11.2019 09:00:00 - - - - - - -
15.11.2019 08:00:00 - - - - - - -
15.11.2019 07:00:00 11,4 9,8 9 5 SSE 1002,5 20
15.11.2019 06:00:00 - - - - - - -
15.11.2019 05:00:00 - - - - - - -
15.11.2019 04:00:00 - - - - - - -
15.11.2019 03:00:00 - - - - - - -
15.11.2019 02:00:00 - - - - - - -
15.11.2019 01:00:00 - - - - - - -
15.11.2019 00:00:00 - - - - - - -
14.11.2019 23:00:00 - - - - - - -
14.11.2019 22:00:00 - - - - - - -
14.11.2019 21:00:00 - - - - - - -
14.11.2019 20:00:00 - - - - - - -
14.11.2019 19:00:00 13,2 12,6 11 6 SE 1004,2 20
14.11.2019 18:00:00 - - - - - - -
14.11.2019 17:00:00 - - - - - - -
14.11.2019 16:00:00 15,8 13,3 11 6 S 1004,2 25
14.11.2019 15:00:00 - - - - - - -
14.11.2019 14:00:00 - - - - - - -
14.11.2019 13:00:00 15,6 11,8 11 6 ESE 1007,0 25
14.11.2019 12:00:00 - - - - - - -
14.11.2019 11:00:00 - - - - - - -
14.11.2019 10:00:00 13,2 11,2 0 0 N 1008,3 20
14.11.2019 09:00:00 - - - - - - -
14.11.2019 08:00:00 - - - - - - -
14.11.2019 07:00:00 10,6 9,2 0 0 N 1007,4 20
14.11.2019 06:00:00 - - - - - - -
14.11.2019 05:00:00 - - - - - - -
14.11.2019 04:00:00 - - - - - - -
14.11.2019 03:00:00 - - - - - - -
14.11.2019 02:00:00 - - - - - - -
14.11.2019 01:00:00 - - - - - - -
14.11.2019 00:00:00 - - - - - - -
13.11.2019 23:00:00 - - - - - - -
13.11.2019 22:00:00 - - - - - - -
13.11.2019 21:00:00 - - - - - - -
13.11.2019 20:00:00 - - - - - - -
13.11.2019 19:00:00 13,2 12,3 15 8 WNW 1006,4 4,0

tt = temperature
td = dewpoint
ff = wind speed
dd = wind direction
ppp = reduced air pressure
vv = visibility

Next stations